Regional Weather Roundup
Issued by NWS

Home | Current Version | Previous Version | Graphics & Text | Print | Product List | Glossary On
Versions: 1 2 3 4 5 6 7 8 9 10 11 12 13 14 15 16 17 18 19 20 21 22 23 24 25 26 27 28 29 30 31 32 33 34 35 36 37 38 39 40 41 42 43 44 45 46 47 48 49 50
000
ASUS43 KDMX 301508
RWRIA

WEATHER ROUNDUP FOR IOWA
NATIONAL WEATHER SERVICE DES MOINES IA
1000 AM CDT MON MAY 30 2016

NOTE: "FAIR" INDICATES FEW OR NO CLOUDS BELOW 12,000 FEET WITH NO
SIGNIFICANT WEATHER AND/OR OBSTRUCTIONS TO VISIBILITY.

* - THESE STATIONS ARE NOT NWS STATIONS...THUS NOT UNDER NWS
QUALITY CONTROL.  THEY ALSO DO NOT REPORT WEATHER SUCH
AS PRECIPITATION OR FOG.

IAZ001>003-012>014-020>022-031>034-043>046-301600-
   NORTHWEST IOWA

CITY           SKY/WX    TMP DP  RH WIND       PRES   REMARKS
CARROLL *      SUNNY     73  59  60 SE9       30.02F
CHEROKEE *     SUNNY     75  52  43 SE14G20   30.01F
DENISON *      SUNNY     73  59  60 CALM      29.99F
LE MARS *      SUNNY     73  54  49 SE14G22   30.00F
ORANGE CITY *  SUNNY     72  57  60 SE9       30.00F
SHELDON *      SUNNY     73  57  56 SE14      30.00S
SIOUX CITY     SUNNY     74  57  55 SE12      29.99F
SPENCER        SUNNY     71  58  63 SE12      30.02F
STORM LAKE *   SUNNY     75  48  38 SE17G24   30.02F
$$

IAZ055>058-069>071-079>083-090>094-301600-
   SOUTHWEST IOWA

CITY           SKY/WX    TMP DP  RH WIND       PRES   REMARKS
ATLANTIC *     SUNNY     77  64  65 S7        30.01S
AUDUBON *        N/A     75  64  69 SE3       30.03S
CLARINDA *       N/A     77  66  69 MISG      30.04S
COUNCIL BLFS * SUNNY     73  61  64 S6        30.01F
CRESTON *      SUNNY     77  64  65 SW9G17    30.05S
HARLAN  *      SUNNY     77  59  53 VRB6      30.05R
LAMONI         SUNNY     77  63  61 SW9       30.04S
RED OAK *      SUNNY     75  64  69 S8        30.02F
SHENANDOAH *   SUNNY     77  64  65 SW5       30.03S
$$

IAZ047>049-059>061-072>074-084-301600-
   CENTRAL IOWA

CITY           SKY/WX    TMP DP  RH WIND       PRES   REMARKS
AMES           SUNNY     76  58  53 E10       30.03F
ANKENY *       SUNNY     77  66  69 NE5       30.02S
BOONE *        SUNNY     73  55  53 E14       30.02F
CHARITON *     SUNNY     79  64  61 SW6       30.03F HX  81
DES MOINES     MOSUNNY   78  63  59 SW5       30.02S HX  80
GRINNELL*      SUNNY     77  61  57 CALM      30.05S
KNOXVILLE *    SUNNY     77  66  69 S7        30.02S
MARSHALLTOWN   MOSUNNY   73  58  59 NE14      30.05S
NEWTON *       SUNNY     77  64  65 NE8       30.03S
PELLA *        SUNNY     79  64  61 S6        30.04S HX  81
PERRY *          N/A     75  64  69 E8        30.02F
$$

IAZ004>006-015-016-023>025-035-036-301600-
   NORTH CENTRAL IOWA

CITY           SKY/WX    TMP DP  RH WIND       PRES   REMARKS
ALGONA *       SUNNY     73  57  56 SE10      30.03F
CLARION *      SUNNY     72  59  64 SE15      30.03F
ESTHERVILLE    SUNNY     70  57  63 SE13      30.03S
FORT DODGE *   SUNNY     73  57  56 SE10      30.03F
MASON CITY     MOSUNNY   69  58  67 S10       30.06S
FOREST CITY *  SUNNY     70  55  60 SE10      30.04S
WEBSTER CITY * SUNNY     73  55  53 E14       30.01F
IOWA FALLS *     N/A     72  57  60 E9        30.05F
$$

IAZ007>011-017>019-026>030-037>042-050>054-066-301600-
   NORTHEAST IOWA

CITY           SKY/WX    TMP DP  RH WIND       PRES   REMARKS
CEDAR RAPIDS   PTSUNNY   70  62  76 CALM      30.06R
CHARLES CITY * MOSUNNY   68  59  73 SE9       30.05F
CLINTON *      MOSUNNY   76  62  62 NE7       30.06S
DECORAH *      SUNNY     73  55  53 VRB3      30.06S
DUBUQUE        SUNNY     76  58  53 VRB6      30.06S
MONTICELLO *   MOSUNNY   79  54  41 NE7       30.06R
OELWEIN *      MOSUNNY   70  63  78 W6        30.09R
WATERLOO       CLOUDY    64  58  80 S3        30.08R
$$

IAZ064-065-067-068-078-301600-
   EAST CENTRAL IOWA

CITY           SKY/WX    TMP DP  RH WIND       PRES   REMARKS
DAVENPORT      CLOUDY    76  60  57 CALM      30.06S
IOWA CITY      PTSUNNY   73  61  65 S6        30.08R
MT. PLEASANT * PTSUNNY   68  66  94 NE8       30.07F
MUSCATINE *    PTSUNNY   66  63  88 S7        30.07R
QUAD CITIES    CLOUDY    74  64  71 CALM      30.04F
$$

IAZ062-063-075>077-085>089-095>099-301600-
   SOUTHEAST IOWA

CITY           SKY/WX    TMP DP  RH WIND       PRES   REMARKS
BURLINGTON     CLOUDY    72  63  73 NW5       30.07S
FAIRFIELD *      N/A    N/A N/A N/A MISG        N/A
FORT MADISON * MOSUNNY   73  64  73 NW8       30.08S
KEOKUK *       PTSUNNY   77  68  73 SW5       30.06S
OSKALOOSA *      N/A     77  63  61 SE9       30.05S
OTTUMWA        SUNNY     75  67  76 E9        30.05S
WASHINGTON *   MOSUNNY   68 -40   1 SE6       30.07F
$$

ABBREVIATIONS USED IN REMARKS
   TC - TEMPERATURES IN CELSIUS
  WCI - WIND CHILL INDEX
   HX - HEAT INDEX
  VSB - VISIBILITY
$$





USA.gov is the U.S. government's official web portal to all federal, state and local government web resources and services.